Location: Castillon
(43.0896°N, 0.2156°E)
Time: 02:32:07
(UTC+00:00)

Lacrosse 5 rocket - Pass Details

Date: 16 June 2021
Orbit: 459 x 634 km, 57.0° (Epoch: 25 July)

Event Time Altitude Azimuth Distance (km) Brightness Sun altitude
Exits shadow 20:47:13 - 189° (S) 2,343 4.2 -10.1°
Reaches altitude 10° 20:49:13 10° 174° (S) 1,654 3.3 -10.4°
Maximum altitude 20:51:59 20° 126° (SE) 1,137 2.3 -10.7°
Drops below altitude 10° 20:54:43 10° 77° (ENE) 1,621 3.4 -11.1°
Sets 20:57:12 0° 60° (ENE) 2,489 4.5 -11.4°
